Terminal Aerodrome Forecast
Issued by NWS

Home | Current Version | Previous Version | Graphics & Text | Print | Product List | Glossary On
Versions: 1 2 3 4 5 6 7 8 9 10 11 12 13 14 15 16 17
000
FTUS43 KMPX 141458 AAA
TAFRWF
TAF AMD
KRWF 141458Z 1415/1512 07007KT P6SM SCT100
     FM141800 07007KT P6SM VCSH BKN025 BKN040
     FM141900 07008KT 6SM -SHRA BR OVC015
     FM142100 04012KT 3SM -SHRA BR OVC008
     FM150400 34015G28KT 3SM -SHRA BR OVC012
     FM150900 32013G20KT P6SM SCT020 BKN050=

USA.gov is the U.S. government's official web portal to all federal, state and local government web resources and services.